Tracking 17145 objects as of 23-May-2015
HD Live streaming from Space Station

RUBIN 2

Track RUBIN 2 now!
10-day predictions
RUBIN 2 is classified as:


NORAD ID: 27605
Int'l Code: 2002-058A
Perigee: 597.1 km
Apogee: 710.5 km
Inclination: 64.6 °
Period: 97.7 minutes
Semi major axis: 7024 km
RCS: 0.234 m2 (medium)
Launch date: December 20, 2002
Source: Germany (GER)
Your satellite tracking list
Your tracking list is empty





NASA's NSSDC Master Catalog

Two Line Element Set (TLE):
1 27605U 02058A   15142.80702699  .00000310  00000-0  65197-4 0  9995
2 27605 064.5559 257.3120 0080775 293.4201 147.4176 14.74522537667946

Source of the keplerian elements: AFSPC

N2YO: 341